THOR ABLESTAR DEB, 2432

Orbit data source: Space-Track

THOR ABLESTAR DEB, 2432 is space debris in LEO originally from a launch on Thu, 05 Dec 1963 UTC launched from the Air Force Western Test Range (AFWTR). Debris objects in space refer to the collection of defunct objects orbiting the Earth. Examples of debris include non-operational satellites, rocket bodies, and fragments generated from explosions, collisions, or faulty payload assembly.

Loading next visibility...
Identifier
2432, 1963-049G
Orbit
LEO
Country
Flag of USUS
Related business
Manufacturer
Unknown
Mission
Spacecraft
Bus & Motor
Unknown
Mass
Unknown
Launch date (UTC)
1963-12-05 (62 years ago)
Launch vehicle
Unknown
Launch site
Air Force Western Test Range (AFWTR)
Object type
Payload
Rocket body
Debris
Shape & HBR
Unknown shape, 0.2 m
Radar Cross Section
Medium (>0.1 m² and <1 m²)

Expand to show TLE details & history
Last TLE update: 5 hours ago

TLE from 5 hours ago
0 THOR ABLESTAR DEB
1 02432U 63049G   25292.29947985  .00000162  00000-0  24570-3 0  9996
2 02432  89.9177  72.5942 0033492 205.7688 238.2953 13.48211160 40249
Epoch: 2025-10-19T07:11Z
TLE epoch observation values (Epoch: 2025-10-19T07:11:15.059Z)
Latitude
83.76198°
Longitude
-62.48758°
Altitude
1,105.767 km
Speed
7.3 km/s
True Right ascension
04h 53m 22s
True Declination
83° 43' 35"
Sunlit
Object was in daylight at epoch
Visualization orbit readout
Latitude
Unknown
Longitude
Unknown
Altitude
Unknown
Speed
Unknown
Apparent Right ascension
Unknown
Apparent Declination
Unknown
Sunlit
N/A
Visualization observer readout
Local Sidereal Time
06:56:17
Azimuth
Unknown
Elevation
Unknown
Doppler factor
Unknown
Orbital elements
Apogee altitude
1,100.865 km
Perigee altitude
1,050.935 km
Semi-major axis
7,454.037 km
Eccentricity
0.00335
Inclination
89.9177°
RAAN
72.5942°
Arg. of periapsis
205.7688°
True anomaly
237.9695°
Mean anomaly
238.2953°
Eccentric anomaly
238.13233°
Mean motion
3.37253 °/min
Orbital period
106.74 mins
BSTAR
0.0002457
Loading maneuver chart data...
Computing Atmospheric mass density...
Loading historical data...
Loading historical data...
Loading historical data...
Loading historical data...
Loading historical data...
Loading historical data...
Loading historical data...

Documentation

Showing up to 5 results
|